Weather History for Billings, MT

Change the Weather History Date:

Thursday, April 25, 2013

  Actual Average Record
Temperature  
Mean Temperature 56 °F 49 °F  
Max Temperature 69 °F 61 °F 84 °F (1974)
Min Temperature 42 °F 37 °F 23 °F (1960)
Degree Days  
Heating Degree Days 9 16  
Month to date heating degree days 638 491  
Since 1 July heating degree days 6041 6301  
Cooling Degree Days 0 0  
Month to date cooling degree days 0 0  
Year to date cooling degree days 0 0  
Growing Degree Days 6 (Base 50)    
Moisture  
Dew Point 21 °F    
Average Humidity 30    
Maximum Humidity 43    
Minimum Humidity 16    
Precipitation  
Precipitation 0.00 in 0.06 in 1.46 in (1964)
Month to date precipitation 1.02 1.34  
Year to date precipitation 2.16 3.36  
Snow  
Snow 0.00 in 0.20 in 6.60 in (1988)
Month to date snowfall 5.6 7.3  
Since 1 July snowfall 40.4 52.0  
Snow Depth 0.00 in    
Sea Level Pressure  
Sea Level Pressure 29.85 in    
Wind  
Wind Speed 13 mph (West)    
Max Wind Speed 29 mph    
Max Gust Speed 34 mph    
Visibility 10 miles    
Events      
T = Trace of Precipitation, MM = Missing Value Source: NWS Daily Summary

Daily Weather History Graph

Daily Weather History Graph

Search for Another Location

Airport:

Trip Planner

Search our weather history database for the weather conditions in past years. The results will help you decide how hot, cold, wet, or windy it might be!

Date:

Astronomy

Apr. 25, 2013 Rise Set
Actual Time 6:10 AM MDT 8:14 PM MDT
Civil Twilight 5:38 AM MDT 8:46 PM MDT
Nautical Twilight 4:58 AM MDT 9:26 PM MDT
Astronomical Twilight 4:14 AM MDT 10:10 PM MDT
Moon 8:33 PM MDT (4/25) 5:55 AM MDT (4/25)
Length of Visible Light 15h 08m
Length of Day
14h 03m
Full, 100% of the Moon is Illuminated
Apr 25
Full
Apr 25
Full
May 2
Last Quarter
May 9
New
May 17
First Quarter

Hourly Weather History & Observations

Time (MDT) Temp. Windchill Dew Point Humidity Pressure Visibility Wind Dir Wind Speed Gust Speed Precip Events Conditions
12:53 AM 46.0 °F 38.0 °F 23.0 °F 40% 29.89 in 10.0 mi SW 21.9 mph 27.6 mph N/A   Partly Cloudy
1:53 AM 46.0 °F 39.6 °F 21.9 °F 39% 29.89 in 10.0 mi WSW 15.0 mph - N/A   Clear
2:53 AM 45.0 °F 37.9 °F 21.9 °F 40% 29.88 in 10.0 mi WSW 16.1 mph - N/A   Clear
3:53 AM 44.1 °F 37.4 °F 21.9 °F 42% 29.88 in 10.0 mi WSW 13.8 mph - N/A   Clear
4:53 AM 44.1 °F 37.7 °F 21.0 °F 40% 29.88 in 10.0 mi WSW 12.7 mph - N/A   Clear
5:53 AM 44.1 °F 38.6 °F 21.0 °F 40% 29.87 in 10.0 mi WSW 10.4 mph - N/A   Partly Cloudy
6:53 AM 42.1 °F 36.6 °F 21.0 °F 43% 29.88 in 10.0 mi SW 9.2 mph - N/A   Partly Cloudy
7:53 AM 46.0 °F 39.0 °F 21.0 °F 37% 29.86 in 10.0 mi WSW 17.3 mph - N/A   Scattered Clouds
8:53 AM 50.0 °F - 21.9 °F 33% 29.86 in 10.0 mi WSW 17.3 mph - N/A   Scattered Clouds
9:53 AM 55.0 °F - 21.0 °F 27% 29.86 in 10.0 mi WSW 17.3 mph - N/A   Scattered Clouds
10:53 AM 59.0 °F - 21.9 °F 24% 29.84 in 10.0 mi West 9.2 mph - N/A   Partly Cloudy
11:53 AM 63.0 °F - 19.0 °F 18% 29.82 in 10.0 mi NW 10.4 mph 21.9 mph N/A   Partly Cloudy
12:53 PM 64.0 °F - 19.9 °F 18% 29.80 in 10.0 mi NW 15.0 mph 25.3 mph N/A   Partly Cloudy
1:53 PM 66.0 °F - 19.0 °F 17% 29.78 in 10.0 mi West 16.1 mph 31.1 mph N/A   Scattered Clouds
2:53 PM 66.0 °F - 19.9 °F 17% 29.78 in 10.0 mi WNW 17.3 mph 28.8 mph N/A   Scattered Clouds
3:53 PM 66.9 °F - 19.0 °F 16% 29.77 in 10.0 mi WNW 16.1 mph 23.0 mph N/A   Scattered Clouds
4:53 PM 66.9 °F - 19.9 °F 17% 29.77 in 10.0 mi NW 18.4 mph 25.3 mph N/A   Scattered Clouds
5:53 PM 66.9 °F - 19.9 °F 17% 29.78 in 10.0 mi NW 17.3 mph 26.5 mph N/A   Partly Cloudy
6:53 PM 66.0 °F - 21.0 °F 18% 29.80 in 10.0 mi NNW 15.0 mph - N/A   Partly Cloudy
7:53 PM 62.1 °F - 21.9 °F 21% 29.82 in 10.0 mi North 10.4 mph - N/A   Partly Cloudy
8:53 PM 54.0 °F - 24.1 °F 31% 29.86 in 10.0 mi NNW 9.2 mph - N/A   Partly Cloudy
9:53 PM 54.0 °F - 23.0 °F 30% 29.90 in 10.0 mi North 5.8 mph - N/A   Partly Cloudy
10:53 PM 51.1 °F - 25.0 °F 36% 29.93 in 10.0 mi NE 3.5 mph - N/A   Partly Cloudy
11:53 PM 55.0 °F - 24.1 °F 30% 29.92 in 10.0 mi SE 3.5 mph - N/A   Mostly Cloudy